Wind_Speed
52 51 51 48 47 46 45 43 43 40 41 38 38 37 37 38 36 34 34 35 34 34 33 32 30 29 26 24 23 22 19 19 23 22 29 19 21 20 19 24 20 20 25 21 21
53 53 53 51 49 47 47 45 44 43 42 42 40 40 37 38 39 37 35 35 34 34 32 28 28 28 27 24 24 23 21 21 23 22 25 19 21 16 20 21 20 19 20 20 19
55 54 53 53 51 48 47 48 45 44 44 43 41 41 39 38 39 36 34 32 31 28 26 26 27 28 27 25 25 25 27 25 24 23 21 20 21 15 19 24 20 15 19 19 18
54 53 53 52 52 49 48 49 48 45 44 42 40 40 40 36 37 30 30 30 29 30 31 30 31 32 32 28 29 29 29 28 25 22 22 22 21 22 17 22 20 18 15 16 16
51 51 49 48 51 49 48 47 47 44 43 39 40 39 36 33 36 29 26 27 32 36 37 38 36 34 32 30 30 30 30 28 24 22 23 21 22 23 21 23 23 22 21 22 24
57 55 53 56 51 51 49 47 45 42 39 37 38 37 33 33 33 33 33 35 39 41 37 34 35 34 30 30 30 27 28 25 22 21 21 24 24 27 23 26 26 27 28 29 31
56 56 57 55 54 53 51 49 46 44 40 38 37 37 32 35 36 35 38 38 37 35 32 30 29 31 28 29 25 23 23 21 20 19 20 25 27 27 27 28 30 32 33 34 36
58 57 55 54 53 51 50 49 48 44 41 38 37 36 34 36 41 40 38 37 32 31 29 26 24 27 25 24 21 21 20 22 25 22 23 25 32 23 26 31 34 36 38 39 41
62 60 57 58 55 54 52 51 49 46 41 37 38 39 40 38 41 43 37 33 29 29 27 24 20 20 22 20 20 20 19 21 27 26 29 27 31 28 29 32 33 37 39 42 43
61 59 60 57 57 57 55 55 54 53 48 41 41 43 49 42 41 38 34 32 25 27 27 24 20 21 23 22 19 22 20 23 26 35 28 32 31 34 31 32 35 37 39 42 44
62 58 53 57 57 59 56 56 55 56 49 44 49 45 49 41 38 36 35 31 23 25 26 22 22 23 31 24 23 26 29 30 32 38 32 32 35 36 37 34 38 41 42 44 46
65 62 58 58 60 57 53 55 55 55 50 41 45 44 43 39 39 38 34 33 28 27 31 25 26 32 27 32 33 33 34 35 35 36 34 34 39 38 42 41 42 44 46 47 49
63 64 60 55 61 58 52 51 51 51 54 49 46 45 39 41 36 38 37 34 34 34 34 36 39 37 34 38 38 39 38 38 39 38 35 39 42 41 46 44 45 46 47 50 52
67 67 61 63 53 50 50 55 50 56 60 56 46 47 45 44 43 41 41 38 39 38 39 41 41 46 39 41 44 42 42 39 40 40 39 43 44 40 50 51 51 51 48 50 53
72 78 71 74 75 65 63 61 64 60 62 61 59 50 53 52 48 42 40 45 45 44 45 46 48 48 48 44 45 43 43 42 41 43 44 43 45 40 46 51 55 55 50 53 56
83 78 77 77 73 74 70 71 72 69 73 65 62 59 53 50 46 46 43 46 47 51 50 47 51 46 40 46 42 46 43 45 44 44 47 43 47 40 28 51 57 56 55 55 59
84 78 78 85 82 79 73 71 75 77 65 68 63 64 57 55 51 47 49 47 46 47 49 49 48 52 44 46 45 44 45 44 46 47 47 42 48 44 40 54 55 49 52 56 58
83 85 74 70 75 75 80 74 65 70 75 70 66 65 63 59 53 48 48 47 46 45 43 47 50 46 48 43 44 46 45 46 45 40 35 39 50 37 54 56 58 46 52 57 59
79 80 83 81 66 68 70 69 76 68 67 67 71 64 56 51 47 44 42 41 41 40 40 42 39 47 41 42 43 47 48 46 50 50 54 54 52 40 55 57 54 51 54 55 55
75 76 74 74 71 69 66 63 58 64 61 62 64 61 56 50 46 44 41 43 41 40 43 46 47 47 48 48 49 49 50 50 51 53 53 53 35 30 45 49 48 53 55 54 53
73 75 70 71 70 68 68 66 54 54 54 51 49 49 50 48 51 48 44 45 42 43 46 46 46 49 50 50 49 50 51 52 54 54 53 52 50 48 48 45 42 46 50 52 49
73 72 68 68 69 69 65 59 52 49 50 47 46 44 47 46 49 45 45 47 48 46 46 46 48 50 50 53 52 54 52 52 53 50 49 40 49 39 43 42 43 46 47 49 47
69 69 69 66 69 65 63 59 61 57 54 50 44 42 47 47 52 51 51 54 51 48 48 50 52 50 53 52 52 49 46 47 46 48 47 41 41 35 42 43 44 46 47 49 44
56 64 65 68 66 62 59 57 56 54 57 60 51 46 44 44 52 56 57 53 52 51 51 53 51 50 47 36 37 41 41 41 41 43 38 40 40 35 36 41 44 45 49 48 41
57 61 57 64 65 63 59 55 52 51 45 43 42 46 46 41 45 51 56 56 56 57 56 51 47 46 43 42 41 32 38 38 39 35 37 38 38 34 35 40 40 41 40 44 44
53 59 53 54 54 55 56 54 53 48 47 44 43 41 43 45 46 48 46 51 51 51 47 40 41 41 39 36 38 41 38 39 37 37 39 36 37 36 40 42 40 41 42 43 45
57 63 53 53 48 52 54 50 51 46 47 46 42 40 42 38 43 44 46 39 39 32 34 38 36 31 31 32 40 43 36 35 35 35 35 38 37 35 36 35 38 41 43 44 42
Wind_Direction
255 256 257 258 258 259 261 263 267 267 270 271 273 274 277 280 279 278 279 279 281 282 281 282 284 286 284 282 279 273 265 256 256 259 264 269 272 272 270 267 272 264 270 275 272
256 256 258 259 259 260 262 263 264 268 269 271 272 273 274 276 276 275 278 279 279 277 279 282 283 282 280 278 277 272 261 241 266 256 262 267 273 280 271 277 266 268 272 275 274
256 256 257 259 260 261 261 263 263 265 268 270 271 272 271 273 274 278 277 276 276 277 279 281 283 280 279 276 272 270 256 268 254 254 254 257 261 264 267 268 286 262 262 261 259
257 258 259 261 261 261 262 263 265 266 266 267 269 270 272 271 271 272 274 272 272 276 283 287 284 279 274 271 269 262 263 256 251 250 251 254 264 261 268 270 272 272 257 252 251
258 259 259 261 264 262 262 263 264 265 266 268 268 267 267 266 268 269 269 273 283 287 287 286 280 275 268 268 261 258 257 251 245 248 250 258 262 268 265 272 273 271 269 266 271
258 259 261 263 262 264 263 262 262 262 261 263 265 264 262 265 269 270 275 287 291 288 284 283 279 269 258 255 256 254 252 245 244 249 257 263 265 266 264 265 268 270 273 275 277
258 258 256 257 258 260 262 261 259 258 258 259 257 258 257 260 265 267 276 283 286 284 280 280 271 261 255 249 243 240 243 245 243 256 267 269 271 266 268 266 267 269 274 277 279
255 256 256 256 258 259 260 259 259 259 259 256 256 255 257 263 271 273 280 281 278 275 272 268 263 258 251 241 233 234 239 244 248 264 275 273 273 270 270 272 270 271 274 277 279
254 255 255 256 257 258 259 258 258 257 256 254 255 255 261 266 271 274 275 275 273 269 258 253 254 241 231 234 232 233 243 253 264 257 273 271 270 278 276 276 276 277 279 281 281
254 254 256 256 257 256 256 258 259 259 257 256 255 256 260 266 270 267 265 266 261 256 250 244 239 232 231 231 228 233 243 259 263 273 262 276 272 276 276 275 278 278 279 279 279
250 252 248 255 253 254 256 258 259 260 260 257 257 257 263 263 262 258 262 258 250 246 242 237 240 237 236 240 245 250 258 259 266 265 266 268 268 270 277 272 277 278 279 280 281
246 249 252 246 249 252 254 260 261 260 260 252 259 256 259 258 252 259 252 251 252 241 243 246 252 248 255 255 257 260 262 266 261 260 265 265 267 273 275 281 283 284 284 285 286
246 248 243 242 243 244 255 255 255 256 257 257 258 254 250 253 251 254 248 249 250 251 257 256 256 255 257 261 260 259 261 261 261 263 260 265 270 273 274 282 283 284 285 287 287
241 242 245 240 233 234 237 244 242 251 258 261 250 251 247 249 251 251 254 251 255 256 261 260 256 264 259 261 264 258 260 254 260 261 262 267 271 272 284 283 284 284 287 287 288
235 242 237 240 243 243 241 241 246 250 251 255 253 251 250 248 253 249 250 255 256 259 259 265 259 259 265 263 256 254 253 257 255 260 265 266 277 288 288 285 285 287 291 292 292
242 240 234 233 239 247 245 245 244 241 241 244 250 251 248 244 248 253 254 257 256 258 261 254 263 262 257 255 252 252 255 258 261 265 267 276 279 280 270 283 287 295 294 294 293
250 254 250 239 243 240 238 242 241 240 242 245 244 248 252 250 251 251 255 260 259 258 260 263 255 260 251 251 249 253 256 260 266 268 273 277 275 275 271 282 288 291 293 292 292
241 247 252 254 252 250 255 253 242 238 241 246 249 251 256 257 258 258 259 258 255 257 254 254 255 251 254 251 255 252 256 258 264 267 268 264 275 288 284 289 287 295 293 292 294
242 242 245 245 250 255 255 252 255 242 248 249 247 255 255 255 255 256 257 252 248 247 244 246 246 249 247 249 251 256 258 259 261 263 265 269 272 280 279 280 291 294 293 294 296
243 244 244 246 246 247 249 249 258 258 257 256 255 256 256 252 251 251 250 250 246 243 242 247 251 253 254 254 253 256 259 262 263 266 268 270 270 261 269 283 293 289 289 291 296
238 241 244 245 246 247 247 248 252 255 256 257 256 253 254 255 254 249 250 250 247 246 245 244 247 250 251 255 259 257 258 261 263 267 269 271 270 273 282 286 286 286 291 294 298
238 239 236 238 242 244 245 248 247 243 245 250 250 249 248 248 247 246 245 248 247 245 246 246 248 251 252 251 254 258 259 262 264 266 268 268 273 284 288 285 286 288 289 294 297
239 238 236 235 236 239 241 243 243 241 243 241 244 241 242 243 246 246 243 249 249 247 245 247 248 247 252 258 258 261 262 261 262 264 267 271 280 285 282 286 287 289 291 294 291
238 235 232 233 235 236 240 241 241 241 243 246 242 242 240 243 246 247 246 247 246 247 249 251 253 253 251 256 258 259 256 256 258 262 274 276 285 282 280 283 283 291 293 291 295
229 236 238 236 234 237 236 234 232 235 237 235 235 242 245 244 248 251 251 250 248 249 253 257 259 254 252 244 243 240 250 258 264 272 273 279 279 288 284 284 290 291 291 294 296
223 234 239 237 232 233 233 229 227 228 231 237 238 235 239 245 249 246 253 255 254 258 257 249 239 241 249 243 247 249 253 260 273 278 277 277 283 288 287 287 288 291 293 294 296
216 224 224 235 230 230 226 229 232 232 235 235 232 232 241 243 244 249 253 240 244 229 237 249 250 241 241 250 248 253 262 270 269 272 274 280 289 287 287 290 293 292 292 291 291
Height
5821 5822 5825 5826 5827 5829 5831 5832 5834 5833 5835 5835 5836 5836 5836 5836 5837 5837 5838 5839 5839 5839 5837 5837 5837 5838 5838 5838 5838 5837 5838 5837 5835 5834 5829 5832 5829 5829 5829 5825 5827 5827 5824 5825 5826
5811 5813 5816 5818 5819 5820 5823 5824 5825 5826 5827 5828 5828 5829 5829 5829 5829 5829 5832 5832 5831 5832 5832 5831 5831 5831 5831 5831 5832 5833 5833 5831 5828 5827 5825 5827 5825 5825 5823 5822 5822 5822 5821 5821 5821
5801 5803 5805 5808 5811 5811 5813 5816 5816 5818 5819 5820 5821 5822 5821 5822 5822 5824 5824 5824 5825 5826 5826 5825 5825 5825 5825 5825 5825 5825 5825 5824 5822 5822 5822 5820 5819 5819 5818 5815 5815 5818 5816 5817 5816
5790 5793 5796 5798 5800 5801 5804 5807 5808 5809 5811 5812 5813 5814 5815 5814 5815 5818 5816 5818 5818 5819 5820 5819 5818 5819 5819 5818 5819 5818 5818 5817 5817 5817 5817 5815 5814 5813 5814 5811 5811 5811 5812 5811 5811
5780 5783 5785 5786 5790 5792 5795 5797 5799 5800 5803 5805 5805 5806 5807 5808 5806 5810 5811 5810 5811 5812 5811 5812 5810 5810 5810 5810 5810 5810 5811 5811 5811 5811 5811 5810 5810 5808 5809 5808 5807 5807 5806 5806 5806
5770 5772 5775 5779 5781 5783 5785 5787 5790 5791 5794 5796 5797 5799 5799 5800 5800 5800 5803 5803 5803 5803 5802 5801 5802 5802 5801 5802 5803 5804 5804 5806 5806 5806 5806 5805 5805 5802 5805 5803 5802 5802 5801 5800 5799
5759 5761 5764 5767 5770 5773 5775 5778 5779 5782 5785 5787 5789 5790 5791 5792 5793 5793 5794 5794 5794 5794 5795 5794 5794 5794 5795 5795 5796 5797 5800 5801 5801 5801 5802 5800 5799 5798 5798 5798 5798 5797 5795 5794 5793
5747 5750 5753 5757 5760 5762 5765 5768 5771 5772 5776 5779 5781 5782 5785 5784 5785 5787 5786 5786 5786 5786 5788 5788 5788 5788 5789 5790 5791 5794 5795 5796 5794 5795 5796 5795 5791 5793 5792 5791 5790 5790 5789 5787 5785
5736 5739 5741 5747 5748 5752 5754 5757 5760 5762 5766 5770 5772 5774 5778 5779 5776 5778 5778 5779 5779 5780 5781 5782 5782 5782 5784 5786 5788 5789 5790 5790 5789 5791 5788 5789 5786 5783 5785 5784 5783 5781 5780 5778 5776
5723 5727 5732 5734 5737 5740 5743 5746 5749 5751 5756 5761 5764 5765 5766 5769 5769 5770 5770 5771 5773 5774 5777 5778 5778 5778 5778 5780 5784 5782 5784 5785 5786 5779 5785 5782 5782 5776 5778 5777 5775 5773 5772 5769 5767
5711 5715 5721 5723 5725 5727 5732 5734 5738 5740 5745 5753 5751 5755 5756 5759 5760 5761 5763 5766 5766 5769 5772 5771 5773 5774 5772 5775 5776 5777 5778 5779 5778 5773 5775 5776 5774 5772 5768 5771 5767 5765 5762 5760 5758
5700 5704 5708 5712 5713 5717 5719 5723 5726 5729 5733 5738 5741 5745 5747 5750 5750 5754 5755 5759 5762 5764 5764 5768 5768 5766 5771 5769 5770 5770 5770 5771 5769 5768 5767 5768 5764 5765 5760 5759 5758 5756 5752 5749 5746
5686 5691 5696 5699 5700 5705 5709 5713 5715 5717 5718 5728 5733 5735 5739 5739 5744 5744 5747 5751 5754 5756 5757 5759 5759 5760 5762 5762 5762 5762 5762 5762 5761 5760 5761 5758 5756 5757 5752 5750 5748 5744 5741 5738 5734
5671 5677 5681 5686 5692 5693 5697 5702 5705 5705 5707 5715 5724 5724 5727 5730 5733 5736 5739 5743 5745 5747 5748 5749 5752 5749 5753 5753 5752 5752 5751 5753 5752 5752 5752 5748 5748 5749 5741 5738 5736 5733 5732 5728 5724
5653 5661 5665 5671 5674 5680 5682 5686 5691 5694 5697 5702 5704 5715 5715 5720 5723 5728 5731 5732 5736 5737 5738 5739 5737 5740 5742 5745 5742 5742 5741 5742 5742 5741 5740 5741 5740 5739 5730 5727 5721 5719 5719 5714 5710
5635 5643 5649 5655 5660 5664 5667 5671 5672 5680 5684 5688 5692 5697 5703 5707 5711 5715 5721 5722 5725 5725 5726 5728 5724 5729 5733 5729 5733 5731 5734 5733 5732 5731 5730 5733 5731 5732 5724 5716 5709 5709 5705 5702 5698
5618 5621 5631 5635 5645 5648 5648 5651 5653 5665 5677 5677 5686 5685 5688 5695 5700 5705 5707 5710 5712 5715 5715 5719 5718 5716 5720 5719 5721 5723 5723 5723 5722 5720 5723 5721 5719 5719 5713 5708 5704 5698 5695 5691 5687
5602 5606 5612 5621 5627 5628 5629 5630 5631 5663 5664 5664 5674 5676 5677 5680 5686 5691 5694 5697 5700 5702 5703 5704 5705 5708 5708 5711 5711 5711 5712 5713 5712 5714 5716 5710 5709 5709 5701 5696 5690 5689 5682 5679 5675
5583 5587 5596 5608 5613 5611 5613 5610 5628 5651 5651 5655 5658 5661 5665 5668 5672 5677 5681 5685 5687 5691 5692 5692 5695 5694 5700 5699 5700 5700 5700 5704 5700 5702 5699 5703 5704 5703 5691 5686 5683 5676 5671 5667 5665
5567 5570 5581 5587 5594 5593 5595 5599 5625 5631 5633 5638 5643 5652 5653 5658 5661 5665 5668 5674 5677 5679 5680 5682 5682 5686 5688 5689 5688 5689 5691 5691 5688 5689 5688 5691 5691 5693 5680 5678 5674 5664 5662 5659 5658
5548 5553 5570 5571 5573 5574 5575 5598 5615 5616 5622 5625 5633 5638 5641 5647 5648 5651 5656 5659 5664 5668 5669 5671 5672 5676 5676 5679 5677 5677 5678 5679 5676 5677 5675 5677 5679 5676 5675 5671 5664 5658 5652 5649 5647
5530 5540 5555 5555 5556 5559 5567 5597 5604 5602 5610 5614 5620 5624 5629 5636 5636 5642 5645 5644 5651 5655 5657 5660 5661 5660 5667 5665 5665 5666 5668 5666 5664 5667 5665 5664 5669 5671 5660 5659 5653 5650 5645 5640 5639
5511 5526 5535 5537 5538 5546 5566 5581 5583 5590 5597 5603 5608 5613 5616 5623 5625 5630 5630 5631 5638 5641 5643 5647 5647 5649 5650 5655 5654 5656 5658 5656 5653 5652 5654 5654 5658 5658 5652 5647 5645 5638 5634 5631 5631
5499 5503 5513 5519 5530 5543 5556 5569 5571 5579 5583 5590 5600 5602 5605 5612 5614 5616 5616 5622 5625 5628 5631 5631 5637 5639 5643 5644 5642 5644 5645 5646 5644 5642 5645 5643 5642 5649 5642 5638 5634 5631 5625 5621 5621
5482 5485 5503 5508 5517 5534 5544 5557 5560 5564 5575 5580 5587 5592 5599 5604 5607 5605 5604 5611 5613 5615 5620 5624 5628 5629 5633 5632 5633 5634 5635 5635 5633 5637 5633 5636 5633 5637 5633 5625 5626 5622 5618 5612 5610
5474 5479 5489 5502 5513 5520 5530 5539 5549 5560 5567 5573 5576 5582 5587 5592 5597 5597 5597 5602 5603 5606 5609 5613 5617 5618 5622 5623 5622 5623 5627 5624 5626 5627 5624 5624 5624 5624 5620 5618 5617 5612 5609 5604 5600
5463 5470 5480 5491 5500 5507 5516 5533 5543 5553 5555 5561 5567 5573 5577 5583 5584 5588 5590 5594 5597 5599 5600 5604 5608 5610 5610 5614 5613 5614 5620 5619 5618 5618 5615 5614 5616 5614 5609 5608 5606 5602 5598 5593 5589